Overview Statistics Trail Chart Weather Telemetry Raw packets
 

This is the latest recevied weather packets stored in our database for station/object 4S6DRJ-13. If no packets are shown the sender has not sent any weather packets the latest 10 day(s).

<< 141 142 143 144 145 146 147 >>
Time Temp. Humidity Pressure Rain* Wind** Luminosity Snow
1788248948 31.11° C 70% 1008.5 hPa 0 mm 1.79 m/s, 118° 1128 W/m² -
1788248872 31.11° C 70% 1008.6 hPa 0 mm 2.24 m/s, 245° 521 W/m² -
1788248812 31.11° C 70% 1008.5 hPa 0 mm 3.58 m/s, 132° 1128 W/m² -
1788248750 31.11° C 71% 1008.6 hPa 0 mm 4.02 m/s, 219° 1128 W/m² -
1788248689 31.11° C 71% 1008.6 hPa 0 mm 2.24 m/s, 260° 414 W/m² -
1788248629 31.11° C 71% 1008.8 hPa 0 mm 2.24 m/s, 334° 1139 W/m² -
1788248567 31.11° C 72% 1008.5 hPa 0 mm 0.89 m/s, 247° 466 W/m² -
1788248508 31.11° C 71% 1008.7 hPa 0 mm 1.79 m/s, 306° 474 W/m² -
1788248445 31.11° C 70% 1008.6 hPa 0 mm 4.47 m/s, 258° 835 W/m² -
1788248384 31.11° C 70% 1008.6 hPa 0 mm 1.79 m/s, 57° 1138 W/m² -
1788248323 31.11° C 70% 1008.6 hPa 0 mm 2.68 m/s, 225° 404 W/m² -
1788248263 31.11° C 71% 1008.6 hPa 0 mm 0.89 m/s, 282° 461 W/m² -
1788248201 31.11° C 71% 1008.6 hPa 0 mm 1.79 m/s, 334° 318 W/m² -
1788248140 31.67° C 71% 1008.7 hPa 0 mm 1.34 m/s, 220° 796 W/m² -
1788248080 31.67° C 70% 1008.6 hPa 0 mm 1.79 m/s, 216° 1135 W/m² -
1788248019 31.67° C 70% 1008.5 hPa 0 mm 1.34 m/s, 318° 518 W/m² -
1788247957 31.11° C 70% 1008.6 hPa 0 mm 2.24 m/s, 220° 705 W/m² -
1788247899 31.11° C 70% 1008.6 hPa 0 mm 1.79 m/s, 331° 682 W/m² -
1788247835 31.11° C 70% 1008.6 hPa 0 mm 3.13 m/s, 296° 381 W/m² -
1788247774 31.11° C 70% 1008.7 hPa 0 mm 0.89 m/s, 225° 1133 W/m² -
1788247713 31.11° C 69% 1008.7 hPa 0 mm 1.34 m/s, 180° 755 W/m² -
1788247652 31.11° C 68% 1008.6 hPa 0 mm 2.68 m/s, 218° 1118 W/m² -
1788247591 31.67° C 68% 1008.7 hPa 0 mm 2.24 m/s, 295° 1123 W/m² -
1788247530 31.67° C 68% 1008.7 hPa 0 mm 1.79 m/s, 299° 1119 W/m² -
1788247469 31.67° C 68% 1008.9 hPa 0 mm 4.02 m/s, 262° 1102 W/m² -

* Rain latest hour (hover to see other rain measurements)
** Current wind speed in m/s (hover to see current wind gust speed)